Weather History for Mineola, TX

Change the Weather History Date:

Monday, June 24, 2013

  Actual Average (KTYR) Record (KTYR)
Temperature  
Mean Temperature 84 °F 81 °F  
Max Temperature 93 °F 90 °F 105 °F (1925)
Min Temperature 75 °F 72 °F 60 °F (1974)
Degree Days  
Heating Degree Days 0 0  
Month to date heating degree days 0  
Since 1 June heating degree days 0  
Since 1 July heating degree days 2269  
Cooling Degree Days 19 16  
Month to date cooling degree days 336  
Year to date cooling degree days 705  
Since 1 June cooling degree days 336  
Growing Degree Days 34 (Base 50)    
Moisture  
Dew Point 71 °F    
Average Humidity 66    
Maximum Humidity 94    
Minimum Humidity 41    
Precipitation  
Precipitation 0.00 in 0.18 in 2.65 in (1932)
Month to date precipitation 3.94  
Year to date precipitation 22.87  
Snow  
Snow 0.00 in - - ()
Month to date snowfall  
Since 1 June snowfall  
Since 1 July snowfall  
Snow Depth -    
Sea Level Pressure  
Sea Level Pressure 30.01 in    
Wind  
Wind Speed 6 mph (SSE)    
Max Wind Speed 13 mph    
Max Gust Speed 20 mph    
Visibility 9 miles    
Events      
T = Trace of Precipitation, MM = Missing Value Source: NWS Daily Summary

Daily Weather History Graph

Daily Weather History Graph

Search for Another Location

Airport:

Trip Planner

Search our weather history database for the weather conditions in past years. The results will help you decide how hot, cold, wet, or windy it might be!

Date:

Astronomy

Jun. 24, 2013 Rise Set
Actual Time 6:15 AM CDT 8:33 PM CDT
Civil Twilight 5:46 AM CDT 9:02 PM CDT
Nautical Twilight 5:11 AM CDT 9:37 PM CDT
Astronomical Twilight 4:33 AM CDT 10:15 PM CDT
Moon 9:44 PM CDT (6/24) 7:38 AM CDT (6/24)
Length of Visible Light 15h 15m
Length of Day
14h 18m
Full, 98% of the Moon is Illuminated
Jun 24
Full
Jun 29
Last Quarter
Jul 8
New
Jul 15
First Quarter
Jul 22
Full

Hourly Weather History & Observations

Time (CDT) Temp. Heat Index Dew Point Humidity Pressure Visibility Wind Dir Wind Speed Gust Speed Precip Events Conditions
12:15 AM 80.6 °F 84.6 °F 71.6 °F 74% 30.00 in 10.0 mi SE 4.6 mph - N/A   Unknown
12:35 AM 80.6 °F 84.6 °F 71.6 °F 74% 30.00 in 10.0 mi SE 3.5 mph - N/A   Unknown
12:55 AM 80.6 °F 84.6 °F 71.6 °F 74% 30.01 in 10.0 mi SSE 3.5 mph - N/A   Unknown
1:15 AM 80.6 °F 84.6 °F 71.6 °F 74% 30.01 in 10.0 mi SSE 5.8 mph - N/A   Unknown
1:35 AM 80.6 °F 84.6 °F 71.6 °F 74% 30.01 in 10.0 mi SE 4.6 mph - N/A   Unknown
1:55 AM 80.6 °F 84.6 °F 71.6 °F 74% 30.01 in 10.0 mi SSE 4.6 mph - N/A   Unknown
2:15 AM 80.6 °F 84.6 °F 71.6 °F 74% 30.01 in 10.0 mi SSE 4.6 mph - N/A   Unknown
2:35 AM 80.6 °F 84.6 °F 71.6 °F 74% 30.01 in 10.0 mi SSE 5.8 mph - N/A   Unknown
2:55 AM 80.6 °F 84.6 °F 71.6 °F 74% 30.01 in 10.0 mi SSE 4.6 mph - N/A   Unknown
3:15 AM 80.6 °F 84.6 °F 71.6 °F 74% 30.01 in 10.0 mi South 4.6 mph - N/A   Unknown
3:35 AM 78.8 °F - 71.6 °F 78% 30.01 in 10.0 mi South 5.8 mph - N/A   Unknown
3:55 AM 78.8 °F - 71.6 °F 78% 30.01 in 10.0 mi South 3.5 mph - N/A   Unknown
4:15 AM 78.8 °F - 71.6 °F 78% 30.02 in 10.0 mi South 5.8 mph - N/A   Unknown
4:35 AM 78.8 °F - 73.4 °F 83% 30.02 in 10.0 mi SSE 4.6 mph - N/A   Unknown
4:55 AM 78.8 °F - 73.4 °F 83% 30.02 in 10.0 mi SSE 4.6 mph - N/A   Unknown
5:15 AM 77.0 °F - 73.4 °F 89% 30.03 in 10.0 mi SSE 3.5 mph - N/A   Unknown
5:35 AM 77.0 °F - 73.4 °F 89% 30.03 in 10.0 mi SSE 4.6 mph - N/A   Unknown
5:55 AM 77.0 °F - 73.4 °F 89% 30.03 in 9.0 mi South 5.8 mph - N/A   Unknown
6:15 AM 77.0 °F - 73.4 °F 89% 30.03 in 8.0 mi South 3.5 mph - N/A   Unknown
6:35 AM 75.2 °F - 73.4 °F 94% 30.04 in 7.0 mi SSE 3.5 mph - N/A   Unknown
6:55 AM 75.2 °F - 73.4 °F 94% 30.05 in 7.0 mi SSE 4.6 mph - N/A   Unknown
7:15 AM 75.2 °F - 73.4 °F 94% 30.06 in 7.0 mi SSE 3.5 mph - N/A   Unknown
7:35 AM 77.0 °F - 73.4 °F 89% 30.06 in 7.0 mi South 4.6 mph - N/A   Unknown
7:55 AM 78.8 °F - 73.4 °F 83% 30.07 in 6.0 mi SSE 4.6 mph - N/A   Mist
8:15 AM 78.8 °F - 75.2 °F 89% 30.07 in 7.0 mi South 6.9 mph - N/A   Unknown
8:35 AM 80.6 °F 86.2 °F 75.2 °F 84% 30.07 in 7.0 mi SSW 11.5 mph - N/A   Unknown
8:55 AM 80.6 °F 86.2 °F 75.2 °F 84% 30.08 in 6.0 mi South 6.9 mph - N/A   Haze
9:15 AM 80.6 °F 85.4 °F 73.4 °F 79% 30.08 in 7.0 mi SSW 10.4 mph 16.1 mph N/A   Unknown
9:35 AM 82.4 °F 88.2 °F 73.4 °F 74% 30.08 in 7.0 mi SSW 12.7 mph - N/A   Unknown
9:55 AM 82.4 °F 87.2 °F 71.6 °F 70% 30.08 in 7.0 mi SSW 9.2 mph - N/A   Unknown
10:15 AM 82.4 °F 88.2 °F 73.4 °F 74% 30.08 in 7.0 mi SSW 8.1 mph - N/A   Unknown
10:35 AM 84.2 °F 90.9 °F 73.4 °F 70% 30.07 in 7.0 mi South 9.2 mph - N/A   Unknown
10:55 AM 86.0 °F 91.8 °F 71.6 °F 62% 30.07 in 7.0 mi SSE 9.2 mph - N/A   Unknown
11:15 AM 86.0 °F 91.8 °F 71.6 °F 62% 30.08 in 8.0 mi South 9.2 mph - N/A   Unknown
11:35 AM 86.0 °F 91.8 °F 71.6 °F 62% 30.08 in 7.0 mi South 9.2 mph - N/A   Unknown
11:55 AM 87.8 °F 92.6 °F 69.8 °F 55% 30.07 in 8.0 mi SSW 8.1 mph - N/A   Unknown
12:15 PM 89.6 °F 94.7 °F 69.8 °F 52% 30.07 in 8.0 mi South 10.4 mph - N/A   Unknown
12:35 PM 89.6 °F 94.7 °F 69.8 °F 52% 30.06 in 8.0 mi SW 8.1 mph 19.6 mph N/A   Unknown
12:55 PM 89.6 °F 94.7 °F 69.8 °F 52% 30.06 in 7.0 mi SSW 9.2 mph 17.3 mph N/A   Unknown
1:15 PM 89.6 °F 94.7 °F 69.8 °F 52% 30.05 in 9.0 mi SSE 9.2 mph - N/A   Unknown
1:35 PM 91.4 °F 96.8 °F 69.8 °F 49% 30.05 in 8.0 mi South 6.9 mph 16.1 mph N/A   Unknown
1:55 PM 91.4 °F 96.8 °F 69.8 °F 49% 30.04 in 9.0 mi SSE 9.2 mph - N/A   Unknown
2:15 PM 91.4 °F 96.8 °F 69.8 °F 49% 30.03 in 10.0 mi South 6.9 mph - N/A   Unknown
2:35 PM 91.4 °F 96.8 °F 69.8 °F 49% 30.02 in 8.0 mi SE 5.8 mph - N/A   Unknown
2:55 PM 91.4 °F 96.8 °F 69.8 °F 49% 30.01 in 10.0 mi South 5.8 mph - N/A   Unknown
3:15 PM 91.4 °F 96.8 °F 69.8 °F 49% 30.00 in 9.0 mi SE 5.8 mph - N/A   Unknown
3:35 PM 93.2 °F 97.7 °F 68.0 °F 44% 29.99 in 9.0 mi South 5.8 mph - N/A   Unknown
3:55 PM 93.2 °F 97.7 °F 68.0 °F 44% 29.99 in 10.0 mi South 8.1 mph - N/A   Unknown
4:15 PM 91.4 °F 94.0 °F 66.2 °F 43% 29.98 in 10.0 mi South 6.9 mph - N/A   Unknown
4:35 PM 93.2 °F 96.2 °F 66.2 °F 41% 29.97 in 9.0 mi SSE 5.8 mph - N/A   Unknown
4:55 PM 93.2 °F 97.7 °F 68.0 °F 44% 29.97 in 10.0 mi SSE 5.8 mph - N/A   Unknown
5:15 PM 93.2 °F 97.7 °F 68.0 °F 44% 29.96 in 9.0 mi SSE 8.1 mph - N/A   Unknown
5:35 PM 93.2 °F 96.2 °F 66.2 °F 41% 29.96 in 9.0 mi South 9.2 mph - N/A   Unknown
5:55 PM 93.2 °F 96.2 °F 66.2 °F 41% 29.95 in 10.0 mi SSE 8.1 mph - N/A   Unknown
6:15 PM 93.2 °F 96.2 °F 66.2 °F 41% 29.95 in 9.0 mi South 10.4 mph - N/A   Unknown
6:35 PM 93.2 °F 96.2 °F 66.2 °F 41% 29.94 in 10.0 mi South 5.8 mph - N/A   Unknown
6:55 PM 91.4 °F 94.0 °F 66.2 °F 43% 29.94 in 10.0 mi SSE 5.8 mph - N/A   Unknown
7:15 PM 91.4 °F 94.0 °F 66.2 °F 43% 29.94 in 10.0 mi SE 4.6 mph - N/A   Unknown
7:35 PM 89.6 °F 93.4 °F 68.0 °F 49% 29.95 in 10.0 mi Calm Calm - N/A   Unknown
7:55 PM 87.8 °F 92.6 °F 69.8 °F 55% 29.95 in 10.0 mi Calm Calm - N/A   Unknown
8:15 PM 87.8 °F 92.6 °F 69.8 °F 55% 29.95 in 10.0 mi SE 3.5 mph - N/A   Unknown
8:35 PM 86.0 °F 91.8 °F 71.6 °F 62% 29.95 in 9.0 mi Calm Calm - N/A   Unknown
8:55 PM 84.2 °F 89.6 °F 71.6 °F 66% 29.95 in 10.0 mi SE 3.5 mph - N/A   Unknown
9:15 PM 84.2 °F 89.6 °F 71.6 °F 66% 29.95 in 10.0 mi SE 3.5 mph - N/A   Unknown
9:35 PM 84.2 °F 89.6 °F 71.6 °F 66% 29.96 in 10.0 mi SE 3.5 mph - N/A   Unknown
9:55 PM 84.2 °F 89.6 °F 71.6 °F 66% 29.97 in 10.0 mi SSE 4.6 mph - N/A   Unknown
10:15 PM 84.2 °F 89.6 °F 71.6 °F 66% 29.97 in 10.0 mi SSE 5.8 mph - N/A   Unknown
10:35 PM 84.2 °F 89.6 °F 71.6 °F 66% 29.97 in 10.0 mi SSE 8.1 mph - N/A   Unknown
10:55 PM 84.2 °F 89.6 °F 71.6 °F 66% 29.98 in 10.0 mi SSE 6.9 mph - N/A   Unknown
11:15 PM 84.2 °F 89.6 °F 71.6 °F 66% 29.99 in 10.0 mi SSE 6.9 mph - N/A   Unknown
11:35 PM 82.4 °F 88.2 °F 73.4 °F 74% 29.99 in 10.0 mi SSE 5.8 mph - N/A   Unknown
11:55 PM 82.4 °F 88.2 °F 73.4 °F 74% 30.00 in 10.0 mi SSE 5.8 mph - N/A   Unknown